Flag for Australia Weather past 2 weeks in Mackay, Queensland, Australia

Now
72 °F

Mild.


Feels Like: 77 °F
Forecast: 56 / 78 °F
Wind: 16 mph from Southeast

Location: Mackay Mo

Current Time: Sep 4, 2015 at 12:12:29 PM

Latest Report: Sep 4, 2015 at 10:00 AM


Visibility: N/A

Pressure: 30.11 "Hg

Humidity: 37%

Dew point: 44 °F

Location of MackayLocation

Historic Weather in Mackay — Graph

°F

Mackay temperature yesterday

Maximum temperature yesterday: 82 °F (at 1:00 PM)
Minimum temperature yesterday: 70 °F (at 10:00 PM)
Average temperature yesterday: 75 °F

Past Weeks' High & Low Weather Summary

 TemperatureHumidityPressure
High85 °F (Sep 2, 12:00 PM)100% (Aug 26, 3:00 AM)30.22 "Hg (Aug 26, 3:00 AM)
Low60 °F (Aug 21, 1:00 AM)20% (Sep 4, 12:00 AM)29.90 "Hg (Sep 3, 4:00 PM)
Average70 °F82%30.08 "Hg
* Reported Aug 20 10:00 AM — Sep 4 10:00 AM, Mackay, Weather by CustomWeather, © 2015

Note: Actual official high and low records may vary slightly from our data, if they occured in-between our weather recording intervals... More about our weather records

Advertising

Mackay weather history for previous 24 hours

 ConditionsComfort  
Time TempWeatherWind HumidityBarometerVisibility
10:00 AM
Fri, Sep 4
72 °FMild.16 mph37%30.11 "HgN/A
9:00 AM72 °FSunny.17 mph36%30.11 "Hg16 mi
7:00 AM62 °FRefreshingly cool.9 mph37%30.07 "HgN/A
6:00 AM63 °FPassing clouds.9 mph29%30.05 "Hg16 mi
4:00 AM64 °FMild.8 mph26%30.01 "HgN/A
3:00 AM66 °FMild.8 mph22%30.01 "HgN/A
1:00 AM65 °FMild.9 mph31%30.03 "HgN/A
12:00 AM69 °FMild.9 mph20%30.03 "HgN/A
10:00 PM
Thu, Sep 3
70 °FMild.12 mph31%30.02 "HgN/A
9:00 PM71 °FMild.7 mph75%30.01 "HgN/A
7:00 PM73 °FMild.8 mph90%29.97 "HgN/A
6:00 PM75 °FMild.12 mph83%29.94 "HgN/A
4:00 PM79 °FWarm.15 mph72%29.90 "HgN/A
3:00 PM80 °FHaze.16 mph70%29.90 "Hg11 mi
1:00 PM82 °FWarm.17 mph62%29.95 "HgN/A
12:00 PM82 °FHaze.17 mph62%29.98 "Hg11 mi
Weather by CustomWeather, © 2015

See weather overviewHow to use our weather pages